TimeEDT,TemperatureF,Dew PointF,Humidity,Sea Level PressureIn,VisibilityMPH,Wind Direction,Wind SpeedMPH,Gust SpeedMPH,PrecipitationIn,Events,Conditions,WindDirDegrees,DateUTC
12:35 AM,51.8,48.2,88,29.93,10.0,Calm,Calm,-,N/A,,Clear,0,2012-10-02 04:35:00
12:55 AM,51.8,48.2,88,29.93,10.0,Calm,Calm,-,N/A,,Clear,0,2012-10-02 04:55:00
1:15 AM,51.8,48.2,88,29.94,8.0,Calm,Calm,-,N/A,,Clear,0,2012-10-02 05:15:00
1:35 AM,50.0,48.2,94,29.95,10.0,Calm,Calm,-,N/A,,Clear,0,2012-10-02 05:35:00
1:55 AM,51.8,48.2,88,29.95,10.0,Calm,Calm,-,N/A,,Clear,0,2012-10-02 05:55:00
2:15 AM,51.8,48.2,88,29.95,10.0,SSW,3.5,-,N/A,,Clear,210,2012-10-02 06:15:00
2:35 AM,51.8,48.2,88,29.95,10.0,Calm,Calm,-,N/A,,Clear,0,2012-10-02 06:35:00
3:15 AM,50.0,48.2,94,29.96,3.0,Calm,Calm,-,N/A,,Clear,0,2012-10-02 07:15:00
3:35 AM,50.0,48.2,94,29.96,7.0,Calm,Calm,-,N/A,,Clear,0,2012-10-02 07:35:00
3:55 AM,50.0,48.2,94,29.97,10.0,Calm,Calm,-,N/A,,Clear,0,2012-10-02 07:55:00
4:35 AM,50.0,48.2,94,29.98,9.0,Calm,Calm,-,N/A,,Scattered Clouds,0,2012-10-02 08:35:00
4:55 AM,50.0,48.2,94,29.98,10.0,Calm,Calm,-,N/A,,Mostly Cloudy,0,2012-10-02 08:55:00
5:35 AM,50.0,48.2,94,29.98,10.0,Calm,Calm,-,N/A,,Scattered Clouds,0,2012-10-02 09:35:00
6:15 AM,50.0,48.2,94,29.98,10.0,Calm,Calm,-,N/A,,Mostly Cloudy,0,2012-10-02 10:15:00
6:55 AM,50.0,48.2,94,29.99,9.0,Calm,Calm,-,N/A,,Overcast,0,2012-10-02 10:55:00
7:15 AM,50.0,48.2,94,30.00,9.0,Calm,Calm,-,N/A,,Mostly Cloudy,0,2012-10-02 11:15:00
7:35 AM,51.8,48.2,88,30.02,10.0,Calm,Calm,-,N/A,,Mostly Cloudy,0,2012-10-02 11:35:00
7:55 AM,51.8,48.2,88,30.03,9.0,Calm,Calm,-,N/A,,Mostly Cloudy,0,2012-10-02 11:55:00
8:15 AM,51.8,50.0,94,30.02,10.0,Calm,Calm,-,N/A,,Scattered Clouds,0,2012-10-02 12:15:00
8:35 AM,53.6,50.0,88,30.02,10.0,Calm,Calm,-,N/A,,Partly Cloudy,0,2012-10-02 12:35:00
9:35 AM,55.4,51.8,88,30.04,10.0,Calm,Calm,-,N/A,,Clear,0,2012-10-02 13:35:00
9:55 AM,57.2,51.8,82,30.04,10.0,Calm,Calm,-,N/A,,Clear,0,2012-10-02 13:55:00
10:15 AM,59.0,53.6,82,30.04,10.0,Calm,Calm,-,N/A,,Clear,0,2012-10-02 14:15:00
10:35 AM,60.8,53.6,77,30.04,10.0,Calm,Calm,-,N/A,,Clear,0,2012-10-02 14:35:00
10:55 AM,62.6,53.6,72,30.04,10.0,Calm,Calm,-,N/A,,Clear,0,2012-10-02 14:55:00
11:15 AM,62.6,53.6,72,30.03,10.0,Calm,Calm,-,N/A,,Clear,0,2012-10-02 15:15:00
11:35 AM,62.6,53.6,72,30.03,10.0,Calm,Calm,-,N/A,,Partly Cloudy,0,2012-10-02 15:35:00
11:55 AM,64.4,53.6,68,30.03,10.0,Calm,Calm,-,N/A,,Mostly Cloudy,0,2012-10-02 15:55:00
12:15 PM,64.4,53.6,68,30.03,10.0,Calm,Calm,-,N/A,,Overcast,0,2012-10-02 16:15:00
12:55 PM,64.4,53.6,68,30.03,10.0,West,3.5,-,N/A,,Overcast,270,2012-10-02 16:55:00
1:35 PM,62.6,55.4,77,30.02,10.0,South,5.8,-,N/A,,Mostly Cloudy,190,2012-10-02 17:35:00
1:55 PM,62.6,55.4,77,30.01,10.0,SW,3.5,-,0.01,,Overcast,220,2012-10-02 17:55:00
2:15 PM,60.8,57.2,88,30.01,10.0,Calm,Calm,-,N/A,,Mostly Cloudy,0,2012-10-02 18:15:00
2:35 PM,60.8,57.2,88,30.01,10.0,Calm,Calm,-,N/A,,Overcast,0,2012-10-02 18:35:00
2:55 PM,60.8,55.4,82,30.03,10.0,Calm,Calm,-,N/A,,Overcast,0,2012-10-02 18:55:00
3:15 PM,60.8,57.2,88,30.02,10.0,Calm,Calm,-,N/A,,Overcast,0,2012-10-02 19:15:00
3:35 PM,60.8,57.2,88,30.03,10.0,SSW,3.5,-,N/A,,Overcast,210,2012-10-02 19:35:00
3:55 PM,60.8,57.2,88,30.03,10.0,SSW,4.6,-,N/A,,Overcast,210,2012-10-02 19:55:00
4:15 PM,60.8,57.2,88,30.02,10.0,South,4.6,-,N/A,,Overcast,170,2012-10-02 20:15:00
4:35 PM,60.8,55.4,82,30.03,10.0,SSW,4.6,-,N/A,,Overcast,200,2012-10-02 20:35:00
4:55 PM,60.8,55.4,82,30.03,10.0,South,4.6,-,N/A,,Overcast,170,2012-10-02 20:55:00
5:15 PM,60.8,55.4,82,30.03,10.0,South,4.6,-,N/A,,Overcast,180,2012-10-02 21:15:00
5:35 PM,60.8,55.4,82,30.03,9.0,Calm,Calm,-,N/A,,Overcast,0,2012-10-02 21:35:00
5:55 PM,59.0,55.4,88,30.03,10.0,Calm,Calm,-,N/A,,Overcast,0,2012-10-02 21:55:00
6:15 PM,59.0,55.4,88,30.03,10.0,Calm,Calm,-,N/A,,Overcast,0,2012-10-02 22:15:00
6:55 PM,59.0,55.4,88,30.03,10.0,Calm,Calm,-,N/A,,Overcast,0,2012-10-02 22:55:00
7:15 PM,59.0,55.4,88,30.04,10.0,Calm,Calm,-,N/A,,Overcast,0,2012-10-02 23:15:00
7:35 PM,59.0,55.4,88,30.04,10.0,Calm,Calm,-,N/A,,Overcast,0,2012-10-02 23:35:00
8:35 PM,59.0,55.4,88,30.04,10.0,Calm,Calm,-,N/A,,Overcast,0,2012-10-03 00:35:00
9:15 PM,57.2,55.4,94,30.05,10.0,Calm,Calm,-,N/A,,Overcast,0,2012-10-03 01:15:00
9:35 PM,57.2,55.4,94,30.05,9.0,Calm,Calm,-,N/A,,Overcast,0,2012-10-03 01:35:00
9:55 PM,59.0,55.4,88,30.05,9.0,Calm,Calm,-,N/A,,Overcast,0,2012-10-03 01:55:00
10:15 PM,59.0,55.4,88,30.05,5.0,Calm,Calm,-,N/A,,Overcast,0,2012-10-03 02:15:00
10:35 PM,57.2,55.4,94,30.05,7.0,Calm,Calm,-,N/A,,Overcast,0,2012-10-03 02:35:00
10:55 PM,57.2,55.4,94,30.05,5.0,Calm,Calm,-,N/A,,Overcast,0,2012-10-03 02:55:00
11:15 PM,57.2,55.4,94,30.06,6.0,Calm,Calm,-,N/A,,Overcast,0,2012-10-03 03:15:00
11:35 PM,59.0,55.4,88,30.06,5.0,Calm,Calm,-,N/A,,Overcast,0,2012-10-03 03:35:00
11:55 PM,57.2,55.4,94,30.05,5.0,Calm,Calm,-,N/A,,Overcast,0,2012-10-03 03:55:00